604  
ASUS43 KBIS 312331  
RWRND  
NORTH DAKOTA REGIONAL WEATHER ROUNDUP  
NATIONAL WEATHER SERVICE EASTERN NORTH DAKOTA/GRAND FORKS ND  
600 PM CDT SUN MAY 31 2020  
 
NOTE: "FAIR" INDICATES FEW OR NO CLOUDS BELOW 12,000 FEET WITH NO  
SIGNIFICANT WEATHER AND/OR S TO VISIBILITY
.  
 
NDZ001>003-009>011-017-010000-   
..NORTHWEST NORTH DAKOTA
 
 
 
CITY SKY/WX TMP DP RH WIND PRES REMARKS
 
WILLISTON NOT AVBL  
MINOT FAIR 83 55 38 SE20G32 29.79F  
MINOT AFB FAIR 80 56 43 S29G35 29.78F  

 
 
NDZ018>021-031>035-040>046-010000-   
..SOUTHWEST NORTH DAKOTA
 
 
 
CITY SKY/WX TMP DP RH WIND PRES REMARKS
 
BISMARCK FAIR 83 59 44 S26G35 29.84F  
DICKINSON FAIR 79 60 52 S21G32 29.77F  
GARRISON N/A 82 57 42 S25G36 29.81F  
HETTINGER FAIR 76 60 57 SE21G31 29.83F  

 
 
NDZ004>008-012>016-024-026-027-054-010000-   
..NORTHEAST NORTH DAKOTA
 
 
 
CITY SKY/WX TMP DP RH WIND PRES REMARKS
 
GRAND FORKS PTSUNNY 80 44 27 S17G28 29.95F  
GRAND FORKS AF FAIR 80 48 31 S20G26 29.95F  
DEVILS LAKE FAIR 76 51 41 SE21 29.93F  

 
 
NDZ022-023-025-028>030-036>039-047>053-010000-   
..SOUTHEAST NORTH DAKOTA
 
 
 
CITY SKY/WX TMP DP RH WIND PRES REMARKS
 
JAMESTOWN FAIR 79 57 46 S16G31 29.92F  
FARGO FAIR 82 49 31 S17G28 29.97F  
WAHPETON N/A 81 45 28 S16G24 29.99F  

 
 
 
CLICK HERE TO GO TO PREVIOUS BULLETINS.

The Nexlab ND Page Main Text Page